Location: Cincinnati Observatory Center
(39.1389°N, 84.4225°W)
Time: 01:16:30
(UTC-04:00)

Daily predictions for brighter satellites

Satellite Brightness Start Highest point End
(mag) Time Altitude Azimuth Time Altitude Azimuth Time Altitude Azimuth
Lacrosse 5 4.0 00:10:39 10° NNW 00:13:24 22° N 00:13:24 22° N
CZ-2C R/B 4.3 00:14:18 10° NNE 00:16:47 29° NNE 00:16:47 29° NNE
CZ-4C R/B 4.0 00:26:51 26° NNE 00:26:51 26° NNE 00:29:28 10° NNE
ATLAS 5 CENTAUR R/B 3.7 00:27:18 10° NNW 00:31:11 35° N 00:31:11 35° N
ADEOS Rocket 4.4 01:10:03 10° NNE 01:14:08 36° NE 01:14:08 36° NE
Cosmos 1943 Rocket 4.2 01:11:40 10° NNW 01:13:38 23° NNW 01:13:38 23° NNW
Resurs 1-4 Rocket 4.5 02:30:17 10° NE 02:32:03 15° ENE 02:32:03 15° ENE
Cosmos 2034 Rocket 4.5 03:17:52 56° N 03:17:52 56° N 03:22:40 10° N
Cosmos 1980 Rocket 4.1 03:22:32 10° N 03:27:09 25° NE 03:31:45 10° ESE
Cosmos 1607 4.2 03:29:40 68° NE 03:29:40 68° NE 03:35:17 10° NNE
Cosmos 1697 Rocket 3.5 03:25:21 10° N 03:30:48 46° ENE 03:31:12 45° ENE
CZ-2D R/B 2.9 03:25:53 10° NNE 03:30:01 48° NE 03:30:01 48° NE
Cosmos 1092 Rocket 4.2 03:26:37 10° N 03:32:42 63° ENE 03:32:42 63° ENE
Cosmos 2082 Rocket 2.8 03:35:02 54° NE 03:35:02 54° NE 03:39:27 10° NNE
SL-16 R/B 2.6 03:34:38 74° NE 03:34:38 74° NE 03:40:34 10° N
Lacrosse 4 Rocket 3.5 03:31:03 10° N 03:33:35 27° NNE 03:33:35 27° NNE
Cosmos 1867 4.4 03:31:54 10° NNW 03:37:12 48° NE 03:37:36 47° ENE
ARIANE 5 R/B 3.3 03:39:06 10° NNE 03:43:38 47° E 03:43:38 47° E
Cosmos 967 Rocket 4.5 03:41:02 10° NNW 03:47:15 81° NNE 03:47:15 81° NNE
APEX 4.5 03:50:36 84° SE 03:50:42 84° ESE 03:56:54 10° NNE
ADEOS II 3.9 03:58:17 10° NE 04:02:34 25° E 04:04:45 19° SE
IRS-1D 3.7 04:01:19 10° N 04:05:47 65° NNW 04:05:47 65° NNW
ADEOS 4.2 04:04:08 10° NNE 04:09:12 48° E 04:09:56 45° SE
Resurs 1-4 Rocket 2.5 04:08:45 10° N 04:13:08 49° NW 04:13:08 49° NW
Cosmos 1833 Rocket 3.1 04:14:17 48° NW 04:14:17 48° NW 04:19:24 10° NNE
Cosmos 1634 Rocket 3.9 04:18:31 66° W 04:18:50 67° W 04:25:05 10° N
Helios 1A Rocket 3.5 04:15:33 10° NNE 04:18:54 55° NNE 04:18:54 55° NNE
Lacrosse 5 rocket 2.5 04:21:36 37° N 04:21:36 37° N 04:24:43 10° NNE
Cosmos 1606 Rocket 3.6 04:25:55 10° N 04:30:10 73° ENE 04:30:10 73° ENE
Cosmos 2360 4.2 04:25:13 10° NNW 04:30:56 81° ENE 04:36:38 10° SSE
Cosmos 2279 Rocket 3.9 04:32:47 50° SSW 04:34:36 85° W 04:40:55 10° N
Cosmos 2228 3.8 04:31:35 10° N 04:35:45 49° E 04:37:29 30° SE
Cosmos 1892 Rocket 3.5 04:40:00 72° SSE 04:40:23 81° E 04:44:49 10° N
Cosmos 1066 Rocket 4.3 04:44:18 50° W 04:44:48 52° WNW 04:50:08 10° N
Cosmos 2026 Rocket 4.1 04:39:42 10° NNW 04:45:54 55° W 04:47:24 45° SW
Meteor 1-21 4.4 04:47:14 28° S 04:50:20 70° E 04:55:57 10° NNE
ATLAS 3B R/B 3.3 04:47:02 25° S 04:51:13 55° ESE 04:57:59 10° NE
COSMOS 2487 4.0 04:52:33 26° NNW 04:52:33 26° NNW 04:54:37 10° N
Cosmos 2208 Rocket 4.3 04:51:46 45° W 04:52:30 48° WNW 04:57:36 10° N
Cosmos 1763 Rocket 3.5 04:53:31 40° S 04:55:28 83° ESE 05:00:49 10° NNE
Timation 2 Rocket 4.0 04:52:46 31° S 04:55:46 72° ESE 05:01:44 10° NNE
Cosmos 1898 Rocket 3.4 04:59:02 10° NNW 05:04:12 65° WSW 05:09:17 10° S
UNKNOWN OBJECT B 3.6 05:06:59 10° N 05:10:18 32° WNW 05:10:18 32° WNW
USA 215 3.2 05:03:59 10° NE 05:10:33 86° NW 05:14:17 28° SW
CZ-2D R/B 3.7 05:07:15 10° NNW 05:10:44 18° WNW 05:11:21 17° WNW
Cosmos 1980 Rocket 2.4 05:06:00 10° NW 05:11:19 45° WSW 05:15:16 17° S
Cosmos 1655 Rocket 4.2 05:05:56 10° NNW 05:12:04 51° W 05:16:05 22° SSW
Okean O Rocket 4.0 05:10:12 10° NE 05:13:34 21° E 05:16:55 10° SE
Cosmos 1697 Rocket 4.0 05:10:01 10° NW 05:12:50 21° WNW 05:12:50 21° WNW
Cosmos 1937 Rocket 3.3 05:12:30 10° NNW 05:17:41 70° WSW 05:22:46 10° S
SL-16 R/B 4.2 05:19:43 15° WNW 05:19:43 15° WNW 05:22:05 10° NW
Cosmos 2082 Rocket 3.9 05:16:53 16° WNW 05:18:29 18° NW 05:22:13 10° N
Cosmos 1470 4.3 05:15:54 10° N 05:19:39 38° ENE 05:23:21 10° SSE
Cosmos 2266 Rocket 3.9 05:14:40 10° N 05:20:45 87° W 05:26:54 10° S
SL-16 R/B 2.5 05:16:02 10° NNW 05:21:43 71° ENE 05:27:22 10° SSE
ARIANE 5 R/B 4.0 05:19:08 10° NNW 05:22:54 20° WNW 05:23:59 19° W
DNEPR-1 R/B 3.8 05:29:30 19° SSW 05:32:22 62° ESE 05:36:48 10° NE
Cosmos 990 Rocket 4.2 05:31:13 10° NNW 05:36:08 46° WSW 05:41:02 10° S
Cosmos 1814 Rocket 4.4 05:34:05 24° WSW 05:36:45 42° WNW 05:41:40 10° N
Cosmos 2150 Rocket 4.1 05:32:02 10° NNW 05:37:28 65° WSW 05:42:49 10° S
Cosmos 1842 4.2 05:36:28 26° WSW 05:37:32 30° WNW 05:41:04 10° NNW
Cosmos 2322 Rocket 2.1 05:33:00 10° NNW 05:38:41 88° WSW 05:44:18 10° SSE
Cosmos 292 Rocket 3.7 05:36:09 18° SSW 05:39:44 71° WNW 05:44:34 10° NNE
Cosmos 1707 3.3 05:37:12 10° S 05:41:00 60° E 05:44:50 10° NNE
ADEOS II 2.7 05:37:31 10° N 05:42:20 38° WNW 05:45:42 18° SW
OAO 3 Rocket 4.3 05:41:40 21° SW 05:43:03 24° SSW 05:46:52 10° SSE
Cosmos 2298 Rocket 4.2 05:38:42 10° NNW 05:43:49 49° WSW 05:48:53 10° S
Cosmos 1953 2.3 05:39:51 10° N 05:43:57 84° W 05:48:00 10° S
USA 267 4.5 05:38:03 10° E 05:44:08 43° NNE 05:50:14 10° NW
PSLV R/B 3.7 05:44:45 10° NNE 05:48:38 88° W 05:52:24 10° SSW
USA 238 DEB 3.9 05:43:52 17° SW 05:49:09 59° NW 05:56:02 10° NNE
USA 238 3.9 05:43:57 17° SW 05:49:15 59° NW 05:56:09 10° NNE
PSLV R/B 3.6 05:45:32 10° N 05:49:41 57° WNW 05:53:38 11° SSW
Meteor 1-31 Rocket 3.8 05:48:18 10° NNE 05:52:03 47° E 05:55:46 10° S
Cosmos 1812 Rocket 3.5 05:51:32 10° N 05:56:01 77° W 06:00:26 10° S
Cosmos 2058 Rocket 4.4 05:53:08 10° NW 05:56:26 21° W 05:58:41 15° SW
Cosmos 1378 3.2 05:53:15 10° SSW 05:56:55 57° W 06:00:38 10° N
Cosmos 1602 Rocket 4.0 05:55:42 11° SSW 05:59:42 42° W 06:03:50 10° N
Lacrosse 5 rocket 3.9 06:00:07 10° NNW 06:00:50 10° NNW 06:01:34 10° NNW
CZ-4B R/B 3.7 05:55:51 10° NNE 06:01:24 63° ESE 06:06:48 10° S
Cosmos 44 3.6 05:59:00 10° NW 06:04:07 51° WSW 06:09:19 10° S
CRYOSAT 2 4.3 06:00:46 10° S 06:05:36 86° W 06:10:30 10° N
Cosmos 1758 Rocket 4.2 06:01:26 10° S 06:05:40 58° E 06:09:57 10° NNE
Cosmos 1758 4.2 06:04:52 10° NNW 06:08:19 29° W 06:11:45 10° SSW
Cosmos 841 Rocket 4.4 06:05:16 12° WSW 06:09:19 30° WNW 06:13:53 10° N
BREEZE-M R/B 4.4 06:09:07 10° W 06:12:40 39° NNW 06:19:28 10° NE
Cosmos 2322 4.4 06:11:52 10° NNW 06:17:33 62° ENE 06:23:12 10° SE
CZ-4B DEB 4.2 06:13:33 10° N 06:19:07 76° WNW 06:24:37 10° SSW
Meteor 1-28 Rocket 3.1 06:16:08 10° S 06:19:50 68° W 06:23:35 10° NNW
Meteor 2-5 Rocket 3.8 06:16:15 10° S 06:21:46 86° E 06:27:22 10° N
PSLV R/B 3.9 06:20:08 10° SW 06:22:57 39° SSE 06:25:48 10° E
Cosmos 44 Rocket 3.6 06:19:25 10° NW 06:24:22 49° WSW 06:29:21 10° S
SJ 16-02 1.5 06:20:19 10° NNW 06:24:37 53° WSW 06:28:53 10° S
NOSS 3-2 (C) 3.5 06:20:22 10° SW 06:26:13 72° NW 06:32:44 10° NNE
CZ-4B R/B 3.9 06:22:41 10° N 06:26:24 30° WNW 06:29:56 10° SW
SJ-6F 4.5 06:22:16 10° N 06:26:26 71° WNW 06:30:34 10° SSW
Cosmos 1553 Rocket 4.1 06:27:19 10° SSW 06:33:42 73° W 06:40:08 10° N
